Regional Weather Roundup
Issued by NWS New Orleans/Baton Rouge, LA

Home | Current Version | Previous Version | Text Only | Print | Product List | Glossary On
Versions: 1 2 3 4 5 6 7 8 9 10 11 12 13 14 15 16 17 18 19 20 21 22 23 24 25 26 27 28 29 30 31 32 33 34 35 36 37 38 39 40 41 42 43 44 45 46 47 48 49 50
293
ASUS44 KLIX 312301
RWRLIX
NEW ORLEANS REGIONAL WEATHER ROUNDUP
NATIONAL WEATHER SERVICE NEW ORLEANS LA
500 PM CST SAT JAN 31 2015

NOTE: "FAIR" INDICATES FEW OR NO CLOUDS BELOW 12,000 FEET WITH NO
      SIGNIFICANT WEATHER AND/OR OBSTRUCTIONS TO VISIBILITY.
      SKY/WX - SKY CONDITION AND SIGNIFICANT WEATHER.
      TMP - AIR TEMPERATURE.     DP    - DEWPOINT TEMPERATURE.
      RH  - RELATIVE HUMIDITY.   PRES  - PRESSURE.
      HI  - HEAT INDEX.          WCI   - WIND CHILL INDEX.

*  THESE STATIONS ARE NOT NWS OR FAA STATIONS AND ARE NOT UNDER
   NWS QUALITY CONTROL.

LAZ038-040-048-061>063-065>067-069-010000-
SOUTHEAST LOUISIANA

CITY           SKY/WX    TMP DP  RH WIND       PRES   REMARKS
N.O. AUDUBON     N/A     59  53  81 MISG        N/A
N.O. INTL ARPT CLOUDY    58  48  69 E9        30.18S
N.O. LAKEFRONT MOCLDY    59  49  69 E15       30.19S
N.O. DOWNTOWN* NOT AVBL
SLIDELL        MOCLDY    58  47  66 E6        30.19F
BATON ROUGE    MOCLDY    59  46  62 E12       30.16F
BOOTHVILLE     PTCLDY    61  53  75 E7        30.17F
BELLE CHASSE   MOCLDY    61  49  64 E12       30.17S
BOGALUSA*        N/A     62  45  53 SE8       30.20F
GALLIANO*      NOT AVBL
NEW ROADS*     NOT AVBL
GONZALES*      NOT AVBL
HAMMOND*       NOT AVBL
HOUMA*         PTCLDY    63  52  67 E14       30.16S
PORT FOURCHON* CLEAR     64  55  72 E13G20    30.18S

$$

MSZ070-080>082-010000-
SOUTHERN MISSISSIPPI

CITY           SKY/WX    TMP DP  RH WIND       PRES   REMARKS
MCCOMB         MOCLDY    57  36  45 SE3       30.17F
GULFPORT       MOCLDY    57  46  66 E13       30.21S
BILOXI         MOCLDY    58  47  66 SE10      30.22R
PASCAGOULA     PTCLDY    56  44  64 SE7       30.22S
STENNIS ARPT*  CLEAR     55  45  67 E8        30.22S

$$

COASTAL OBSERVATIONS
LAKE AND NEARSHORE STATIONS

STATION/POSITION TIME  TEMP    WIND        PRES    WAVE
                       AIR SEA DIR/SP/G            HT/PER
                 (UTC) (F)     (DEG/KT/KT) (MB)    (FT/S)
PASCAGOULA       2218   58      90/  9/ 12 1022.7
WAVELAND YACHT   2218   55     110/ 11/ 12 1022.4
GRAND ISLE       2218   63 62  100/ 11/ 16 1021.6
SOUTHWEST PASS   2218   68 47  100/ 15/ 18 1021.5
NEW CANAL        2218   58 56   80/  6/ 13 1022.5
SHELL BEACH      2218   60 57  100/ 14/ 17 1022.2

OFFSHORE STATIONS

STATION/POSITION TIME  TEMP    WIND        PRES    WAVE
                       AIR SEA DIR/SP/G            HT/PER
                 (UTC) (F)     (DEG/KT/KT) (MB)    (FT/S)
64 S DAUPHIN ISL 2246   62 69  100/ 19/ 23 1022.2    5/ 7

$$




USA.gov is the U.S. government's official web portal to all federal, state and local government web resources and services.